Location: Passau
(48.5830°N, 13.4830°E)
Time: 21:04:52
(UTC+02:00)

S-56A Canister/Altair - Pass Details

Date: 26 May 2024
Orbit: 637 x 2489 km, 38.9° (Epoch: 16 June)

Event Time Altitude Azimuth Distance (km) Brightness Sun altitude
Rises 09:01:21 0° 261° (W) 5,732 11.5 35.1°
Reaches altitude 10° 09:05:38 10° 256° (WSW) 4,490 11.1 35.8°
Maximum altitude 09:16:30 47° 189° (S) 1,956 10.0 37.6°
Drops below altitude 10° 09:23:53 10° 118° (ESE) 3,081 11.8 38.8°
Sets 09:26:19 0° 112° (ESE) 3,831 12.0 39.2°
